Weather History for Pardubice, Czech Republic

Change the Weather History Date:

Wednesday, November 27, 2013

  Actual Average Record
Temperature  
Mean Temperature 28 °F -  
Max Temperature 33 °F - - ()
Min Temperature 24 °F - - ()
Degree Days  
Heating Degree Days 36    
Moisture  
Dew Point 23 °F    
Average Humidity 79    
Maximum Humidity 93    
Minimum Humidity 60    
Precipitation  
Precipitation 0.00 in - - ()
Sea Level Pressure  
Sea Level Pressure 30.46 in    
Wind  
Wind Speed 4 mph ()    
Max Wind Speed 9 mph    
Max Gust Speed -    
Visibility 6.2 miles    
Events      
T = Trace of Precipitation, MM = Missing Value Source: Averaged Metar Reports

Daily Weather History Graph

Daily Weather History Graph

Search for Another Location

Airport:

Trip Planner

Search our weather history database for the weather conditions in past years. The results will help you decide how hot, cold, wet, or windy it might be!

Date:

Astronomy

Nov. 27, 2013 Rise Set
Actual Time 7:28 AM CET 4:00 PM CET
Civil Twilight 6:51 AM CET 4:37 PM CET
Nautical Twilight 6:10 AM CET 5:18 PM CET
Astronomical Twilight 5:32 AM CET 5:56 PM CET
Moon 12:38 AM CET (11/27) 1:00 PM CET (11/27)
Length of Visible Light 9h 46m
Length of Day
8h 32m
Waning Crescent, 34% of the Moon is Illuminated
Nov 27
Waning Crescent
Dec 3
New
Dec 9
First Quarter
Dec 17
Full
Dec 25
Last Quarter

Hourly Weather History & Observations

Time (CET) Temp. Windchill Dew Point Humidity Pressure Visibility Wind Dir Wind Speed Gust Speed Precip Events Conditions
12:00 AM 32.0 °F 27.5 °F 26.6 °F 80% 30.42 in 6.2 mi NNW 4.6 mph - N/A   Overcast
1:00 AM 32.0 °F 27.5 °F 24.8 °F 75% 30.42 in 6.2 mi NNW 4.6 mph - N/A   Overcast
2:00 AM 32.0 °F - 24.8 °F 75% 30.45 in 6.2 mi Variable 2.3 mph - N/A   Overcast
3:00 AM 30.2 °F 26.7 °F 24.8 °F 80% 30.42 in 6.2 mi WNW 3.5 mph - N/A   Scattered Clouds
4:00 AM 28.4 °F - 24.8 °F 86% 30.45 in 6.2 mi Variable 2.3 mph - N/A   Scattered Clouds
5:00 AM 28.4 °F 22.2 °F 24.8 °F 86% 30.45 in 6.2 mi WNW 5.8 mph - N/A   Scattered Clouds
6:00 AM 24.8 °F 20.5 °F 23.0 °F 93% 30.48 in - SW 3.5 mph - N/A   Clear
7:00 AM 24.8 °F 17.9 °F 23.0 °F 93% 30.48 in - West 5.8 mph - N/A   Clear
8:00 AM 24.8 °F 17.9 °F 21.2 °F 86% 30.48 in - West 5.8 mph - N/A   Clear
9:00 AM 26.6 °F 20.0 °F 24.8 °F 93% 30.48 in - West 5.8 mph - N/A   Clear
10:00 AM 28.4 °F 20.4 °F 24.8 °F 86% 30.48 in - West 8.1 mph - N/A   Clear
11:00 AM 32.0 °F 24.8 °F 24.8 °F 75% 30.48 in - WNW 8.1 mph - N/A   Clear
12:00 PM 32.0 °F 25.6 °F 24.8 °F 75% 30.48 in 6.2 mi West 6.9 mph - N/A   Partly Cloudy
1:00 PM 33.8 °F 28.6 °F 23.0 °F 65% 30.48 in 6.2 mi WNW 5.8 mph - N/A   Partly Cloudy
2:00 PM 33.8 °F 28.6 °F 21.2 °F 60% 30.48 in 6.2 mi WNW 5.8 mph - N/A   Scattered Clouds
3:00 PM 33.8 °F 26.4 °F 21.2 °F 60% 30.45 in 6.2 mi West 9.2 mph - N/A   Scattered Clouds
4:00 PM 30.2 °F 25.4 °F 21.2 °F 69% 30.45 in - West 4.6 mph - N/A   Clear
5:00 PM 28.4 °F - 21.2 °F 74% 30.45 in - Variable 1.2 mph - N/A   Clear
6:00 PM 26.6 °F - 21.2 °F 80% 30.45 in - Variable 1.2 mph - N/A   Clear
7:00 PM 26.6 °F - 21.2 °F 80% 30.45 in - Variable 1.2 mph - N/A   Clear
8:00 PM 26.6 °F - 21.2 °F 80% 30.45 in - Variable 1.2 mph - N/A   Clear
9:00 PM 28.4 °F - 23.0 °F 80% 30.45 in - Calm Calm - N/A   Clear
10:00 PM 26.6 °F - 21.2 °F 80% 30.45 in - Calm Calm - N/A   Clear
11:00 PM 24.8 °F - 21.2 °F 86% 30.45 in - Calm Calm - N/A   Clear